| time (UTC) | temp F | wind direction | speed knots | gust knots | rain 1hr in | rain 24hr in | rain mn in | humidity % | barometer mb |
| 20260506041038 | 41 | 84 | 7.0 | 11.3 | 0.00 | 0.39 | 0.39 | 89 | 925.1 |
| 20260506040536 | 41 | 79 | 8.7 | 13.0 | 0.00 | 0.39 | 0.39 | 89 | 924.9 |
| 20260506040032 | 41 | 47 | 8.7 | 11.3 | 0.00 | 0.39 | 0.39 | 89 | 925.1 |
| 20260506035529 | 40 | 87 | 6.1 | 11.3 | 0.00 | 0.39 | 0.39 | 89 | 925.1 |
| 20260506035026 | 40 | 96 | 4.3 | 7.8 | 0.00 | 0.39 | 0.39 | 88 | 924.8 |
| 20260506034524 | 41 | 66 | 5.2 | 8.7 | 0.00 | 0.39 | 0.39 | 88 | 924.8 |
| 20260506034020 | 41 | 70 | 7.0 | 12.2 | 0.00 | 0.39 | 0.39 | 88 | 924.5 |
| 20260506033518 | 41 | 73 | 1.7 | 12.2 | 0.00 | 0.39 | 0.39 | 87 | 924.6 |
| 20260506033015 | 41 | 67 | 7.8 | 13.0 | 0.00 | 0.39 | 0.39 | 87 | 924.4 |
| 20260506032512 | 41 | 52 | 7.0 | 14.8 | 0.00 | 0.39 | 0.39 | 86 | 924.0 |
| 20260506032008 | 42 | 51 | 7.8 | 9.6 | 0.00 | 0.39 | 0.39 | 85 | 924.0 |
| 20260506031506 | 43 | 48 | 1.7 | 4.3 | 0.00 | 0.39 | 0.39 | 84 | 923.8 |
| 20260506031003 | 41 | 71 | 4.3 | 6.1 | 0.00 | 0.39 | 0.39 | 86 | 923.7 |
| 20260506030501 | 42 | 71 | 2.6 | 6.1 | 0.00 | 0.39 | 0.39 | 85 | 923.8 |
| 20260506025958 | 44 | 50 | 1.7 | 2.6 | 0.00 | 0.39 | 0.39 | 82 | 923.6 |
| 20260506025454 | 44 | 94 | 0.9 | 1.7 | 0.00 | 0.39 | 0.39 | 82 | 923.6 |
| 20260506024951 | 44 | 197 | 2.6 | 4.3 | 0.00 | 0.39 | 0.39 | 82 | 923.6 |
| 20260506024448 | 44 | 140 | 1.7 | 2.6 | 0.00 | 0.39 | 0.39 | 81 | 923.5 |
| 20260506023943 | 44 | 87 | 0.0 | 1.7 | 0.00 | 0.39 | 0.39 | 81 | 923.3 |
| 20260506023441 | 44 | 83 | 0.9 | 2.6 | 0.00 | 0.39 | 0.39 | 82 | 923.3 |
| 20260506022937 | 44 | 81 | 3.5 | 4.3 | 0.00 | 0.39 | 0.39 | 83 | 923.3 |
| 20260506022435 | 44 | 46 | 1.7 | 1.7 | 0.00 | 0.39 | 0.39 | 82 | 923.1 |
| 20260506021933 | 45 | 144 | 2.6 | 4.3 | 0.00 | 0.39 | 0.39 | 81 | 923.1 |
| 20260506021430 | 45 | 69 | 0.9 | 0.9 | 0.00 | 0.39 | 0.39 | 80 | 923.2 |
| 20260506020927 | 45 | 21 | 0.9 | 1.7 | 0.00 | 0.39 | 0.39 | 79 | 923.6 |
| 20260506020425 | 45 | 25 | 0.0 | 1.7 | 0.00 | 0.39 | 0.39 | 79 | 923.5 |
| 20260506015921 | 45 | 90 | 0.9 | 1.7 | 0.00 | 0.39 | 0.39 | 79 | 923.5 |
| 20260506015419 | 46 | 77 | 0.0 | 1.7 | 0.00 | 0.39 | 0.39 | 78 | 923.3 |
| 20260506014916 | 46 | 47 | 0.0 | 0.9 | 0.00 | 0.39 | 0.39 | 78 | 923.5 |
| 20260506014413 | 46 | 16 | 0.9 | 1.7 | 0.00 | 0.39 | 0.39 | 77 | 923.6 |
| 20260506013909 | 47 | 18 | 1.7 | 2.6 | 0.00 | 0.39 | 0.39 | 76 | 923.1 |
| 20260506013408 | 48 | 5 | 0.9 | 1.7 | 0.00 | 0.39 | 0.39 | 75 | 923.5 |
| 20260506012903 | 47 | 251 | 0.9 | 5.2 | 0.00 | 0.39 | 0.39 | 76 | 923.5 |
| 20260506012400 | 48 | 180 | 1.7 | 2.6 | 0.00 | 0.39 | 0.39 | 74 | 923.6 |
| 20260506011857 | 48 | 226 | 6.1 | 9.6 | 0.00 | 0.39 | 0.39 | 74 | 923.5 |
| 20260506011354 | 48 | 228 | 7.0 | 8.7 | 0.00 | 0.39 | 0.39 | 74 | 923.2 |
| 20260506010851 | 49 | 255 | 4.3 | 5.2 | 0.00 | 0.39 | 0.39 | 75 | 923.9 |
| 20260506010350 | 49 | 243 | 3.5 | 5.2 | 0.00 | 0.39 | 0.39 | 76 | 923.9 |
| 20260506005846 | 49 | 219 | 3.5 | 6.1 | 0.00 | 0.39 | 0.39 | 79 | 923.5 |
| 20260506005343 | 48 | 173 | 2.6 | 5.2 | 0.00 | 0.39 | 0.39 | 80 | 923.7 |
| 20260506004838 | 48 | 151 | 2.6 | 4.3 | 0.00 | 0.39 | 0.39 | 79 | 923.5 |
| 20260506004337 | 47 | 105 | 0.9 | 2.6 | 0.00 | 0.39 | 0.39 | 81 | 923.6 |
| 20260506003833 | 47 | 203 | 2.6 | 4.3 | 0.00 | 0.39 | 0.39 | 82 | 923.5 |
| 20260506003329 | 47 | 219 | 0.9 | 2.6 | 0.00 | 0.39 | 0.39 | 84 | 923.6 |
| 20260506002825 | 47 | 117 | 3.5 | 4.3 | 0.00 | 0.39 | 0.39 | 82 | 923.7 |
| 20260506002322 | 47 | 93 | 0.0 | 1.7 | 0.00 | 0.39 | 0.39 | 82 | 923.7 |
| 20260506001817 | 47 | 64 | 0.0 | 1.7 | 0.00 | 0.39 | 0.39 | 82 | 923.2 |
| 20260506001315 | 47 | 115 | 0.9 | 4.3 | 0.07 | 0.39 | 0.39 | 81 | 923.6 |
| 20260506000812 | 47 | 7 | 1.7 | 2.6 | 0.07 | 0.39 | 0.39 | 79 | 923.3 |
| 20260506000310 | 47 | 11 | 0.9 | 2.6 | 0.05 | 0.38 | 0.38 | 79 | 923.5 |
| 20260505235806 | 48 | 205 | 5.2 | 9.6 | 0.12 | 0.38 | 0.38 | 82 | 923.7 |
| 20260505235305 | 49 | 174 | 4.3 | 6.1 | 0.07 | 0.37 | 0.37 | 81 | 923.6 |
| 20260505234800 | 50 | 148 | 0.9 | 7.8 | 0.00 | 0.36 | 0.36 | 78 | 923.5 |
| 20260505234258 | 49 | 314 | 3.5 | 6.1 | 0.00 | 0.36 | 0.36 | 72 | 923.5 |
| 20260505233755 | 50 | 217 | 5.2 | 11.3 | 0.00 | 0.36 | 0.36 | 75 | 923.5 |
| 20260505233253 | 50 | 243 | 5.2 | 6.1 | 0.00 | 0.36 | 0.36 | 74 | 923.8 |
| 20260505232750 | 50 | 254 | 5.2 | 7.0 | 0.00 | 0.36 | 0.36 | 74 | 923.6 |
| 20260505232247 | 50 | 210 | 4.3 | 7.0 | 0.00 | 0.36 | 0.36 | 73 | 923.8 |
| 20260505231743 | 50 | 245 | 3.5 | 8.7 | 0.00 | 0.36 | 0.36 | 73 | 923.7 |
| 20260505231242 | 50 | 255 | 6.1 | 7.8 | 0.00 | 0.36 | 0.36 | 72 | 923.8 |
| 20260505230740 | 51 | 274 | 4.3 | 7.0 | 0.00 | 0.36 | 0.36 | 71 | 924.0 |
| 20260505230237 | 51 | 283 | 6.1 | 8.7 | 0.00 | 0.36 | 0.36 | 72 | 923.9 |
| 20260505225733 | 50 | 223 | 4.3 | 6.1 | 0.00 | 0.36 | 0.36 | 73 | 923.9 |
| 20260505225230 | 50 | 226 | 5.2 | 6.1 | 0.00 | 0.36 | 0.36 | 73 | 924.1 |
| 20260505224725 | 50 | 0 | 3.5 | 6.1 | 0.00 | 0.36 | 0.36 | 73 | 924.1 |
| 20260505224224 | 49 | 188 | 3.5 | 11.3 | 0.00 | 0.36 | 0.36 | 74 | 924.4 |
| 20260505223721 | 49 | 234 | 5.2 | 7.0 | 0.00 | 0.36 | 0.36 | 73 | 924.3 |
| 20260505223217 | 49 | 218 | 2.6 | 8.7 | 0.00 | 0.36 | 0.36 | 74 | 924.3 |
| 20260505222713 | 48 | 200 | 3.5 | 5.2 | 0.00 | 0.36 | 0.36 | 75 | 924.4 |
| 20260505222209 | 48 | 230 | 4.3 | 6.1 | 0.00 | 0.36 | 0.36 | 76 | 924.3 |
| 20260505221707 | 48 | 245 | 4.3 | 7.0 | 0.00 | 0.36 | 0.36 | 76 | 924.3 |
| 20260505221203 | 48 | 250 | 3.5 | 7.8 | 0.00 | 0.36 | 0.36 | 76 | 924.6 |
| 20260505220700 | 49 | 259 | 3.5 | 6.1 | 0.00 | 0.36 | 0.36 | 75 | 924.3 |
| 20260505220158 | 48 | 275 | 2.6 | 7.0 | 0.00 | 0.36 | 0.36 | 74 | 924.8 |
| 20260505215655 | 49 | 236 | 4.3 | 8.7 | 0.00 | 0.36 | 0.36 | 73 | 924.6 |
| 20260505215153 | 48 | 272 | 3.5 | 7.8 | 0.00 | 0.36 | 0.36 | 76 | 924.7 |
| 20260505214651 | 48 | 219 | 2.6 | 5.2 | 0.00 | 0.36 | 0.36 | 77 | 924.8 |
| 20260505214148 | 48 | 347 | 2.6 | 4.3 | 0.00 | 0.36 | 0.36 | 77 | 924.6 |
| 20260505213645 | 47 | 250 | 0.9 | 4.3 | 0.00 | 0.36 | 0.36 | 77 | 924.8 |
| 20260505213142 | 47 | 335 | 2.6 | 5.2 | 0.00 | 0.36 | 0.36 | 77 | 924.7 |
| 20260505212638 | 48 | 315 | 1.7 | 2.6 | 0.00 | 0.36 | 0.36 | 76 | 924.8 |
| 20260505212136 | 47 | 226 | 2.6 | 6.1 | 0.00 | 0.36 | 0.36 | 75 | 924.8 |
| 20260505211632 | 47 | 199 | 2.6 | 5.2 | 0.00 | 0.36 | 0.36 | 77 | 924.9 |
| 20260505211130 | 46 | 120 | 1.7 | 4.3 | 0.00 | 0.36 | 0.36 | 78 | 924.7 |
| 20260505210626 | 46 | 208 | 2.6 | 6.1 | 0.00 | 0.36 | 0.36 | 78 | 924.6 |
| 20260505210123 | 46 | 216 | 2.6 | 4.3 | 0.00 | 0.36 | 0.36 | 78 | 924.8 |
| 20260505205621 | 46 | 227 | 2.6 | 6.1 | 0.00 | 0.36 | 0.36 | 77 | 925.1 |
| 20260505205119 | 45 | 337 | 5.2 | 7.0 | 0.00 | 0.36 | 0.36 | 78 | 925.1 |
| 20260505204615 | 45 | 182 | 2.6 | 4.3 | 0.00 | 0.36 | 0.36 | 81 | 925.3 |
| 20260505204113 | 44 | 333 | 3.5 | 5.2 | 0.00 | 0.36 | 0.36 | 85 | 925.2 |
| 20260505203609 | 43 | 273 | 4.3 | 5.2 | 0.00 | 0.36 | 0.36 | 87 | 925.2 |
| 20260505203107 | 43 | 169 | 2.6 | 2.6 | 0.00 | 0.36 | 0.36 | 89 | 925.4 |
| 20260505202602 | 42 | 311 | 1.7 | 5.2 | 0.00 | 0.36 | 0.36 | 91 | 925.7 |
| 20260505202058 | 41 | 337 | 1.7 | 5.2 | 0.00 | 0.36 | 0.36 | 92 | 925.4 |
| 20260505201555 | 41 | 238 | 2.6 | 5.2 | 0.00 | 0.36 | 0.36 | 92 | 925.4 |
| 20260505201053 | 42 | 27 | 0.9 | 1.7 | 0.00 | 0.36 | 0.36 | 93 | 925.4 |
| 20260505200550 | 41 | 300 | 1.7 | 2.6 | 0.00 | 0.36 | 0.36 | 93 | 925.3 |
| 20260505200047 | 42 | 261 | 0.9 | 4.3 | 0.00 | 0.36 | 0.36 | 92 | 925.3 |
| 20260505195543 | 42 | 192 | 2.6 | 5.2 | 0.00 | 0.36 | 0.36 | 92 | 925.6 |
| 20260505195041 | 42 | 22 | 0.0 | 0.0 | 0.00 | 0.36 | 0.36 | 93 | 925.4 |
| 20260505194538 | 42 | 329 | 0.9 | 1.7 | 0.00 | 0.36 | 0.36 | 93 | 925.2 |
| 20260505194033 | 42 | 89 | 2.6 | 2.6 | 0.00 | 0.36 | 0.36 | 93 | 925.2 |
| 20260505193531 | 41 | 147 | 3.5 | 6.1 | 0.00 | 0.36 | 0.36 | 94 | 925.2 |
| 20260505193028 | 41 | 93 | 1.7 | 2.6 | 0.00 | 0.36 | 0.36 | 94 | 925.1 |
| 20260505192526 | 40 | 167 | 1.7 | 4.3 | 0.07 | 0.36 | 0.36 | 95 | 925.4 |
| 20260505192024 | 40 | 127 | 2.6 | 5.2 | 0.12 | 0.36 | 0.36 | 95 | 925.4 |
| 20260505191522 | 40 | 122 | 2.6 | 2.6 | 0.12 | 0.35 | 0.35 | 95 | 925.5 |
| 20260505191020 | 39 | 87 | 1.7 | 2.6 | 0.19 | 0.34 | 0.34 | 95 | 925.5 |
| 20260505190514 | 39 | 61 | 0.9 | 2.6 | 0.24 | 0.33 | 0.33 | 95 | 925.7 |
| 20260505190010 | 40 | 80 | 0.9 | 1.7 | 0.24 | 0.31 | 0.31 | 96 | 925.6 |
| 20260505185507 | 39 | 76 | 0.0 | 0.0 | 0.24 | 0.29 | 0.29 | 96 | 925.9 |
| 20260505185003 | 38 | 37 | 0.0 | 0.0 | 0.26 | 0.26 | 0.26 | 96 | 925.3 |
| 20260505184500 | 38 | 39 | 0.0 | 0.0 | 0.31 | 0.24 | 0.24 | 96 | 925.6 |
| 20260505183957 | 38 | 49 | 0.0 | 0.0 | 0.19 | 0.21 | 0.21 | 96 | 925.6 |
| 20260505183454 | 37 | 46 | 0.0 | 0.0 | 0.19 | 0.19 | 0.19 | 96 | 925.7 |
| 20260505182950 | 37 | 53 | 0.0 | 0.0 | 0.19 | 0.17 | 0.17 | 96 | 925.4 |
| 20260505182447 | 37 | 50 | 0.0 | 0.0 | 0.17 | 0.16 | 0.16 | 96 | 925.5 |
| 20260505181944 | 36 | 55 | 0.0 | 0.0 | 0.05 | 0.14 | 0.14 | 96 | 925.7 |
| 20260505181441 | 36 | 71 | 0.0 | 0.0 | 0.00 | 0.13 | 0.13 | 96 | 925.7 |
| 20260505180938 | 36 | 90 | 0.0 | 0.0 | 0.00 | 0.13 | 0.13 | 96 | 925.6 |
| 20260505180434 | 36 | 87 | 1.7 | 2.6 | 0.00 | 0.13 | 0.13 | 96 | 925.5 |
| 20260505175931 | 36 | 80 | 0.9 | 2.6 | 0.00 | 0.13 | 0.13 | 96 | 925.6 |
| 20260505175427 | 36 | 100 | 0.9 | 1.7 | 0.00 | 0.13 | 0.13 | 95 | 925.4 |
| 20260505174924 | 36 | 98 | 0.9 | 1.7 | 0.00 | 0.13 | 0.13 | 95 | 925.7 |
| 20260505174422 | 35 | 140 | 1.7 | 1.7 | 0.00 | 0.13 | 0.13 | 95 | 925.7 |
| 20260505173917 | 35 | 119 | 1.7 | 2.6 | 0.00 | 0.13 | 0.13 | 95 | 925.5 |
| 20260505173414 | 35 | 122 | 0.0 | 1.7 | 0.00 | 0.13 | 0.13 | 95 | 925.9 |
| 20260505172911 | 35 | 96 | 0.9 | 1.7 | 0.00 | 0.13 | 0.13 | 95 | 925.7 |
| 20260505172409 | 35 | 60 | 0.0 | 0.9 | 0.00 | 0.13 | 0.13 | 95 | 925.7 |
| 20260505171908 | 35 | 82 | 1.7 | 1.7 | 0.00 | 0.13 | 0.13 | 95 | 925.7 |
| 20260505171405 | 35 | 54 | 2.6 | 2.6 | 0.00 | 0.13 | 0.13 | 95 | 925.6 |
| 20260505170902 | 35 | 51 | 2.6 | 4.3 | 0.07 | 0.13 | 0.13 | 95 | 925.7 |
| 20260505170359 | 36 | 65 | 0.9 | 7.0 | 0.07 | 0.13 | 0.13 | 95 | 925.4 |
| 20260505165854 | 36 | 37 | 0.9 | 7.8 | 0.07 | 0.12 | 0.12 | 95 | 925.6 |
| 20260505165350 | 36 | 63 | 1.7 | 6.1 | 0.12 | 0.12 | 0.12 | 95 | 925.4 |
| 20260505164846 | 36 | 79 | 0.9 | 5.2 | 0.05 | 0.11 | 0.11 | 95 | 925.5 |
| 20260505164342 | 36 | 80 | 2.6 | 5.2 | 0.07 | 0.10 | 0.10 | 95 | 925.7 |
| 20260505163841 | 36 | 70 | 2.6 | 6.1 | 0.07 | 0.10 | 0.10 | 95 | 925.6 |
| 20260505163339 | 36 | 67 | 1.7 | 1.7 | 0.00 | 0.09 | 0.09 | 94 | 926.3 |
| 20260505162838 | 36 | 70 | 1.7 | 5.2 | 0.00 | 0.09 | 0.09 | 94 | 926.2 |
| 20260505162333 | 35 | 68 | 4.3 | 6.1 | 0.00 | 0.09 | 0.09 | 94 | 926.5 |
| 20260505161831 | 35 | 78 | 3.5 | 5.2 | 0.00 | 0.09 | 0.09 | 94 | 926.7 |
| 20260505161328 | 35 | 41 | 0.9 | 2.6 | 0.00 | 0.09 | 0.09 | 93 | 927.0 |
| 20260505160825 | 36 | 49 | 3.5 | 5.2 | 0.00 | 0.09 | 0.09 | 93 | 926.5 |
| 20260505160323 | 36 | 61 | 3.5 | 7.8 | 0.00 | 0.09 | 0.09 | 92 | 925.6 |
| 20260505153301 | 40 | 37 | 6.1 | 8.7 | 0.00 | 0.04 | 0.04 | 88 | 924.8 |
| 20260505152800 | 40 | 81 | 4.3 | 7.8 | 0.00 | 0.04 | 0.04 | 88 | 924.8 |
| 20260505152256 | 40 | 36 | 4.3 | 6.1 | 0.00 | 0.04 | 0.04 | 87 | 924.7 |
| 20260505151755 | 40 | 71 | 5.2 | 7.8 | 0.00 | 0.04 | 0.04 | 88 | 924.7 |
| 20260505151253 | 40 | 104 | 4.3 | 6.1 | 0.00 | 0.04 | 0.04 | 88 | 924.3 |
| 20260505150750 | 40 | 106 | 4.3 | 7.0 | 0.00 | 0.04 | 0.04 | 89 | 924.6 |
| 20260505150247 | 40 | 114 | 4.3 | 5.2 | 0.00 | 0.04 | 0.04 | 89 | 924.6 |
| 20260505140211 | 40 | 70 | 1.7 | 6.1 | 0.00 | 0.03 | 0.03 | 88 | 924.7 |
| 20260505130135 | 42 | 92 | 7.8 | 8.7 | 0.00 | 0.02 | 0.02 | 78 | 923.9 |
| 20260505124624 | 42 | 87 | 6.1 | 9.6 | 0.00 | 0.02 | 0.02 | 80 | 923.9 |
| 20260505124121 | 42 | 97 | 7.8 | 11.3 | 0.00 | 0.02 | 0.02 | 80 | 923.9 |
| 20260505123617 | 42 | 90 | 6.1 | 7.0 | 0.00 | 0.02 | 0.02 | 81 | 923.7 |
| 20260505123114 | 42 | 70 | 3.5 | 7.8 | 0.00 | 0.02 | 0.02 | 81 | 923.7 |
| 20260505122611 | 42 | 102 | 6.1 | 7.0 | 0.00 | 0.02 | 0.02 | 82 | 923.9 |
| 20260505122108 | 42 | 94 | 3.5 | 7.0 | 0.00 | 0.02 | 0.02 | 84 | 923.9 |
| 20260505121604 | 42 | 66 | 4.3 | 6.1 | 0.00 | 0.02 | 0.02 | 85 | 923.8 |
| 20260505121101 | 42 | 55 | 6.1 | 7.8 | 0.00 | 0.02 | 0.02 | 87 | 923.9 |
| 20260505120557 | 42 | 79 | 3.5 | 7.0 | 0.00 | 0.02 | 0.02 | 87 | 923.9 |
| 20260505120053 | 42 | 61 | 1.7 | 4.3 | 0.00 | 0.02 | 0.02 | 87 | 923.8 |
| 20260505115547 | 42 | 55 | 2.6 | 5.2 | 0.00 | 0.02 | 0.02 | 86 | 923.7 |
| 20260505115045 | 42 | 65 | 2.6 | 6.1 | 0.07 | 0.02 | 0.02 | 85 | 923.9 |
| 20260505114542 | 43 | 104 | 2.6 | 6.1 | 0.12 | 0.02 | 0.02 | 84 | 923.7 |
| 20260505114038 | 44 | 46 | 0.9 | 5.2 | 0.05 | 0.01 | 0.01 | 81 | 923.7 |
| 20260505113535 | 44 | 56 | 1.7 | 5.2 | 0.00 | 0.00 | 0.00 | 76 | 923.7 |
| 20260505113032 | 44 | 87 | 3.5 | 5.2 | 0.00 | 0.00 | 0.00 | 76 | 923.7 |
| 20260505112528 | 44 | 79 | 0.9 | 5.2 | 0.00 | 0.00 | 0.00 | 75 | 923.8 |
| 20260505112026 | 45 | 33 | 0.0 | 0.0 | 0.00 | 0.00 | 0.00 | 74 | 923.7 |
| 20260505111520 | 45 | 32 | 0.9 | 1.7 | 0.00 | 0.00 | 0.00 | 74 | 923.8 |
| 20260505111017 | 45 | 351 | 2.6 | 4.3 | 0.00 | 0.00 | 0.00 | 74 | 923.7 |
| 20260505110513 | 45 | 2 | 2.6 | 4.3 | 0.00 | 0.00 | 0.00 | 74 | 923.8 |
| 20260505101945 | 47 | 1 | 3.5 | 7.0 | 0.00 | 0.00 | 0.00 | 76 | 923.5 |
| 20260505101443 | 47 | 354 | 0.0 | 1.7 | 0.00 | 0.00 | 0.00 | 75 | 923.5 |
| 20260505100939 | 47 | 6 | 0.0 | 0.0 | 0.00 | 0.00 | 0.00 | 75 | 923.5 |
| 20260505100438 | 47 | 340 | 0.0 | 2.6 | 0.00 | 0.00 | 0.00 | 74 | 923.5 |
| 20260505095933 | 48 | 272 | 2.6 | 5.2 | 0.00 | 0.00 | 0.00 | 73 | 923.3 |
| 20260505095430 | 48 | 257 | 0.0 | 0.0 | 0.00 | 0.00 | 0.00 | 71 | 923.3 |
| 20260505094926 | 49 | 258 | 0.0 | 2.6 | 0.00 | 0.00 | 0.00 | 69 | 923.5 |
| 20260505094423 | 49 | 299 | 2.6 | 5.2 | 0.00 | 0.00 | 0.00 | 68 | 923.3 |
| 20260505093919 | 49 | 226 | 4.3 | 5.2 | 0.00 | 0.00 | 0.00 | 66 | 923.5 |
| 20260505093416 | 49 | 254 | 4.3 | 5.2 | 0.00 | 0.00 | 0.00 | 65 | 923.2 |
| 20260505092913 | 49 | 254 | 3.5 | 4.3 | 0.00 | 0.00 | 0.00 | 66 | 923.6 |
| 20260505092411 | 49 | 214 | 0.9 | 4.3 | 0.00 | 0.00 | 0.00 | 67 | 923.2 |
| 20260505091908 | 49 | 189 | 1.7 | 5.2 | 0.00 | 0.00 | 0.00 | 67 | 923.6 |
| 20260505091406 | 49 | 202 | 3.5 | 5.2 | 0.00 | 0.00 | 0.00 | 67 | 923.6 |
| 20260505090904 | 50 | 216 | 2.6 | 7.0 | 0.00 | 0.00 | 0.00 | 66 | 923.3 |
| 20260505090402 | 50 | 236 | 5.2 | 8.7 | 0.00 | 0.00 | 0.00 | 65 | 923.6 |
| 20260505085859 | 50 | 185 | 3.5 | 7.0 | 0.00 | 0.00 | 0.00 | 64 | 923.6 |
| 20260505085357 | 50 | 192 | 4.3 | 7.0 | 0.00 | 0.00 | 0.00 | 63 | 923.5 |
| 20260505084854 | 50 | 195 | 2.6 | 6.1 | 0.00 | 0.00 | 0.00 | 63 | 923.5 |
| 20260505084352 | 50 | 139 | 2.6 | 7.0 | 0.00 | 0.00 | 0.00 | 63 | 923.6 |
| 20260505083850 | 50 | 204 | 4.3 | 7.0 | 0.00 | 0.00 | 0.00 | 62 | 923.3 |
| 20260505083347 | 50 | 200 | 7.0 | 9.6 | 0.00 | 0.00 | 0.00 | 62 | 923.3 |
| 20260505082843 | 50 | 213 | 2.6 | 5.2 | 0.00 | 0.00 | 0.00 | 62 | 923.5 |
| 20260505082339 | 51 | 189 | 0.0 | 5.2 | 0.00 | 0.00 | 0.00 | 61 | 923.3 |
| 20260505081836 | 51 | 203 | 6.1 | 7.0 | 0.00 | 0.00 | 0.00 | 60 | 923.5 |
| 20260505081333 | 51 | 193 | 4.3 | 6.1 | 0.00 | 0.00 | 0.00 | 59 | 923.6 |
| 20260505080830 | 51 | 169 | 1.7 | 6.1 | 0.00 | 0.00 | 0.00 | 58 | 923.7 |
| 20260505080325 | 51 | 182 | 4.3 | 5.2 | 0.00 | 0.00 | 0.00 | 59 | 923.3 |
| 20260505075821 | 51 | 97 | 0.0 | 0.0 | 0.00 | 0.00 | 0.00 | 59 | 923.8 |
| 20260505075318 | 50 | 37 | 0.0 | 0.0 | 0.00 | 0.00 | 0.00 | 60 | 923.5 |
| 20260505074816 | 50 | 108 | 0.0 | 0.0 | 0.00 | 0.00 | 0.00 | 60 | 923.6 |
| 20260505074313 | 50 | 159 | 0.0 | 0.0 | 0.00 | 0.00 | 0.00 | 60 | 923.5 |
| 20260505073810 | 50 | 126 | 0.0 | 0.0 | 0.00 | 0.00 | 0.00 | 61 | 923.5 |
| 20260505073308 | 50 | 125 | 0.0 | 0.0 | 0.00 | 0.00 | 0.00 | 60 | 923.5 |
| 20260505072805 | 50 | 223 | 0.0 | 1.7 | 0.00 | 0.00 | 0.00 | 62 | 923.2 |
| 20260505072301 | 49 | 51 | 0.0 | 0.9 | 0.00 | 0.00 | 0.00 | 62 | 923.3 |
| 20260505071756 | 48 | 85 | 0.0 | 4.3 | 0.00 | 0.00 | 0.00 | 65 | 923.6 |
| 20260505071253 | 46 | 130 | 0.0 | 0.9 | 0.00 | 0.00 | 0.00 | 69 | 923.3 |
| 20260505070751 | 45 | 15 | 0.9 | 1.7 | 0.00 | 0.00 | 0.00 | 70 | 923.6 |
| 20260505070247 | 47 | 47 | 6.1 | 7.8 | 0.00 | 0.00 | 0.00 | 68 | 923.5 |
| 20260505065743 | 48 | 59 | 0.0 | 0.0 | 0.00 | 0.00 | 0.00 | 65 | 923.0 |
| 20260505065240 | 49 | 64 | 0.0 | 0.0 | 0.00 | 0.00 | 0.00 | 63 | 923.2 |
| 20260505064737 | 49 | 103 | 0.0 | 0.0 | 0.00 | 0.00 | 0.00 | 61 | 923.3 |
| 20260505064234 | 49 | 188 | 0.0 | 0.0 | 0.00 | 0.00 | 0.00 | 61 | 923.3 |
| 20260505063732 | 49 | 83 | 0.0 | 0.0 | 0.00 | 0.00 | 0.00 | 62 | 923.6 |
| 20260505063228 | 49 | 104 | 0.0 | 0.0 | 0.00 | 0.00 | 0.00 | 62 | 923.0 |
| 20260505062724 | 49 | 69 | 0.0 | 0.0 | 0.00 | 0.00 | 0.00 | 64 | 923.1 |
| 20260505062222 | 48 | 71 | 0.0 | 0.0 | 0.00 | 0.00 | 0.00 | 64 | 923.1 |
| 20260505061719 | 48 | 74 | 0.0 | 0.0 | 0.00 | 0.00 | 0.00 | 66 | 923.3 |
| 20260505061217 | 48 | 80 | 0.0 | 0.0 | 0.00 | 0.00 | 0.00 | 66 | 923.2 |
| 20260505060714 | 47 | 69 | 0.0 | 0.0 | 0.00 | 0.00 | 0.00 | 66 | 923.1 |
| 20260505060211 | 47 | 54 | 0.0 | 0.0 | 0.00 | 0.00 | 0.00 | 68 | 923.2 |
| 20260505055706 | 47 | 50 | 0.0 | 0.9 | 0.00 | 0.00 | 0.00 | 68 | 923.0 |
| 20260505055203 | 47 | 70 | 0.0 | 0.0 | 0.00 | 0.00 | 0.00 | 67 | 923.0 |
| 20260505054700 | 48 | 60 | 0.9 | 0.9 | 0.00 | 0.00 | 0.00 | 66 | 923.1 |
| 20260505054158 | 49 | 47 | 0.0 | 1.7 | 0.00 | 0.00 | 0.00 | 64 | 923.1 |
| 20260505053656 | 49 | 52 | 0.0 | 0.9 | 0.00 | 0.00 | 0.00 | 65 | 923.2 |
| 20260505053152 | 50 | 47 | 0.0 | 0.0 | 0.00 | 0.00 | 0.00 | 63 | 923.1 |
| 20260505052649 | 50 | 30 | 0.0 | 0.0 | 0.00 | 0.00 | 0.00 | 60 | 923.3 |
| 20260505052146 | 50 | 30 | 0.0 | 0.0 | 0.00 | 0.00 | 0.00 | 62 | 923.3 |
| 20260505051643 | 50 | 79 | 0.0 | 0.0 | 0.00 | 0.00 | 0.00 | 64 | 923.6 |
| 20260505051141 | 50 | 108 | 0.0 | 0.9 | 0.00 | 0.00 | 0.00 | 63 | 923.5 |
| 20260505050639 | 50 | 94 | 0.0 | 0.0 | 0.00 | 0.00 | 0.00 | 63 | 923.6 |
| 20260505050137 | 50 | 81 | 0.0 | 1.7 | 0.00 | 0.00 | 0.00 | 62 | 923.5 |
| 20260505041606 | 51 | 95 | 0.0 | 0.0 | 0.00 | 0.00 | 0.00 | 58 | 923.8 |